Stations météo

réclame
Mon MeteoGroup
De Kooy, Pays-Bas (6235): Température de l'air & dewpoint: 12.07.2019 19:00:00 - 18.07.2019 19:00:00 (CEST)De Kooy, Pays-Bas (6235): Température de l'air 5cm: 12.07.2019 19:00:00 - 18.07.2019 19:00:00 (CEST)De Kooy, Pays-Bas (6235): Vitesse du vent & gusts: 12.07.2019 19:00:00 - 18.07.2019 19:00:00 (CEST)De Kooy, Pays-Bas (6235): Direction du vent: 12.07.2019 19:00:00 - 18.07.2019 19:00:00 (CEST)De Kooy, Pays-Bas (6235): reduced air pressure: 12.07.2019 19:00:00 - 18.07.2019 19:00:00 (CEST)De Kooy, Pays-Bas (6235): visibility: 12.07.2019 19:00:00 - 18.07.2019 19:00:00 (CEST)De Kooy, Pays-Bas (6235): Quantités de précipitations: 12.07.2019 19:00:00 - 18.07.2019 19:00:00 (CEST)
Date & Time tt [°C] td [°C] tt 5cm [°C] ff [km/h] ff [knt] fx [km/h] fx [knt] dd ppp [hPa] vv [km] rr [mm]
18.07.2019 19:00:00 16,8 16,5 16,8 16 9 32 18 SSW 1009,9 2,8 3,5
18.07.2019 18:00:00 16,9 15,7 16,5 16 9 32 18 SW 1010,2 6 2,4
18.07.2019 17:00:00 17,8 16,2 17,7 22 12 40 21 SW 1010,3 9 0,1
18.07.2019 16:00:00 18,8 15,7 18,7 26 14 36 19 SW 1010,1 10 0,0
18.07.2019 15:00:00 19,4 15,5 19,9 24 13 40 21 SW 1010,2 10 0,0
18.07.2019 14:00:00 19,0 15,5 20,1 28 15 40 21 SW 1010,1 10 0,0
18.07.2019 13:00:00 19,5 15,5 21,0 28 15 36 19 WSW 1010,1 10 0,0
18.07.2019 12:00:00 19,7 15,3 20,9 26 14 40 21 SW 1009,8 10 0,0
18.07.2019 11:00:00 21,2 15,5 22,4 21 11 32 18 SSW 1009,6 10 0,0
18.07.2019 10:00:00 20,7 15,1 20,7 21 11 32 18 SSW 1009,6 10 0,0
18.07.2019 09:00:00 20,1 14,4 20,5 18 10 29 16 S 1009,7 10 0,0
18.07.2019 08:00:00 18,7 13,5 18,0 15 8 25 14 SSE 1009,7 10 0,0
18.07.2019 07:00:00 17,7 13,1 16,9 13 7 22 12 SSE 1010,0 10 0,0
18.07.2019 06:00:00 17,0 13,8 16,2 11 6 14 8 SSE 1010,3 10 0,0
18.07.2019 05:00:00 16,8 13,6 16,0 11 6 18 10 SSE 1010,5 10 0,0
18.07.2019 04:00:00 16,9 13,7 16,0 15 8 22 12 SE 1010,8 10 0,0
18.07.2019 03:00:00 17,3 14,0 16,2 11 6 18 10 SE 1011,4 10 0,0
18.07.2019 02:00:00 17,4 14,9 16,3 13 7 18 10 ESE 1011,9 10 0,0
18.07.2019 01:00:00 17,0 14,4 15,4 9 5 14 8 SE 1012,4 10 0,0
18.07.2019 00:00:00 17,8 15,2 16,5 11 6 14 8 ESE 1012,6 10 0,0
17.07.2019 23:00:00 18,4 14,6 16,0 9 5 14 8 ESE 1013,0 10 0,0
17.07.2019 22:00:00 17,8 15,0 16,3 5 3 7 4 NE 1013,2 10 0,0
17.07.2019 21:00:00 18,8 14,3 18,4 5 3 7 4 N 1013,4 10 0,0
17.07.2019 20:00:00 19,3 14,6 19,3 9 5 14 8 NE 1013,5 10 0,0
17.07.2019 19:00:00 20,7 15,0 21,9 8 4 11 6 NE 1013,7 10 0,0
17.07.2019 18:00:00 21,2 15,4 22,9 8 4 11 6 NE 1014,2 10 0,0
17.07.2019 17:00:00 20,8 14,9 23,5 5 3 18 10 - 1014,8 10 0,0
17.07.2019 16:00:00 22,1 15,0 24,8 8 4 22 12 W 1015,0 10 0,0
17.07.2019 15:00:00 20,9 15,9 23,3 15 8 25 14 W 1015,2 10 0,0
17.07.2019 14:00:00 20,9 15,2 24,1 11 6 22 12 WNW 1015,6 10 0,0
17.07.2019 13:00:00 21,4 13,5 - 5 3 22 12 - 1015,8 10 0,0
17.07.2019 12:00:00 20,5 14,2 23,1 9 5 18 10 SSE 1015,9 10 0,0
17.07.2019 11:00:00 18,8 13,6 20,9 9 5 18 10 S 1016,1 10 0,0
17.07.2019 10:00:00 17,4 13,1 19,0 13 7 18 10 ESE 1016,3 10 0,0
17.07.2019 09:00:00 16,1 13,2 17,3 11 6 18 10 ESE 1016,5 10 0,0
17.07.2019 08:00:00 15,2 12,7 15,8 8 4 14 8 SE 1016,4 10 0,0
17.07.2019 07:00:00 13,7 12,8 13,0 2 1 7 4 - 1016,5 10 0,0
17.07.2019 06:00:00 12,7 12,4 11,6 2 1 4 2 W 1016,8 9 0,0
17.07.2019 05:00:00 10,8 10,6 7,3 2 1 4 2 W 1016,8 2,2 0,0
17.07.2019 04:00:00 10,5 10,5 6,5 2 1 4 2 - 1017,0 4,4 0,0
17.07.2019 03:00:00 10,6 10,5 6,2 2 1 4 2 - 1017,3 2,4 0,0
17.07.2019 02:00:00 11,5 11,4 6,5 4 2 4 2 NNE 1017,6 1,2 0,0
17.07.2019 01:00:00 12,2 11,8 7,6 2 1 7 4 N 1017,7 10 0,0
17.07.2019 00:00:00 12,3 11,8 7,3 4 2 7 4 NNE 1017,9 10 0,0
16.07.2019 23:00:00 12,7 11,6 8,6 2 1 7 4 N 1018,0 10 0,0
16.07.2019 22:00:00 13,9 11,6 12,4 4 2 11 6 - 1018,1 10 0,0
16.07.2019 21:00:00 15,3 11,5 15,9 8 4 14 8 NW 1018,1 10 0,0
16.07.2019 20:00:00 16,5 11,6 17,6 9 5 14 8 W 1018,2 10 0,0
16.07.2019 19:00:00 16,6 11,6 18,8 8 4 18 10 W 1018,3 10 0,0
16.07.2019 18:00:00 17,0 12,0 18,2 11 6 18 10 W 1018,3 10 0,0
16.07.2019 17:00:00 17,2 12,0 19,2 8 4 22 12 W 1018,5 10 0,0
16.07.2019 16:00:00 15,7 11,3 17,0 11 6 22 12 W 1019,0 10 0,0
16.07.2019 15:00:00 15,7 11,7 17,2 9 5 22 12 - 1019,0 10 0,0
16.07.2019 14:00:00 15,5 11,5 17,2 13 7 22 12 W 1019,1 10 0,0
16.07.2019 13:00:00 15,8 11,8 17,4 13 7 25 14 W 1019,1 10 0,0
16.07.2019 12:00:00 15,4 11,5 16,5 13 7 22 12 WNW 1019,3 10 0,0
16.07.2019 11:00:00 15,2 11,3 - 11 6 18 10 WNW 1019,3 10 0,0
16.07.2019 10:00:00 14,9 11,2 15,4 13 7 22 12 W 1019,3 10 0,0
16.07.2019 09:00:00 14,6 11,0 14,6 11 6 22 12 WNW 1019,3 10 0,0
16.07.2019 08:00:00 14,3 11,0 14,3 9 5 18 10 NW 1019,2 10 0,0
16.07.2019 07:00:00 14,1 10,7 13,9 11 6 18 10 NW 1019,1 10 0,0
16.07.2019 06:00:00 14,2 10,9 13,8 9 5 18 10 WNW 1019,1 10 0,0
16.07.2019 05:00:00 14,2 11,2 13,8 9 5 18 10 NW 1019,1 10 0,0
16.07.2019 04:00:00 14,2 11,0 13,8 8 4 14 8 WNW 1019,4 10 0,0
16.07.2019 03:00:00 14,2 10,8 13,8 9 5 18 10 WNW 1019,6 10 0,0
16.07.2019 02:00:00 14,3 10,6 13,9 8 4 18 10 WNW 1020,1 10 0,0
16.07.2019 01:00:00 14,3 10,2 13,8 9 5 18 10 NW 1020,0 10 0,0
16.07.2019 00:00:00 14,6 10,2 14,1 8 4 22 12 NNW 1020,2 10 0,0
15.07.2019 23:00:00 14,7 10,4 14,3 11 6 22 12 NNW 1020,3 10 0,0
15.07.2019 22:00:00 14,8 11,3 14,2 8 4 22 12 NNW 1020,2 10 0,0
15.07.2019 21:00:00 14,9 11,5 14,7 13 7 25 14 NNW 1020,2 10 0,0
15.07.2019 20:00:00 14,8 11,6 14,7 16 9 29 16 NNW 1020,2 10 0,0
15.07.2019 19:00:00 14,1 12,5 14,3 16 9 29 16 NNW 1020,6 10 0,0
15.07.2019 18:00:00 15,1 11,7 15,3 15 8 25 14 NNW 1020,8 10 0,0
15.07.2019 17:00:00 15,2 11,2 15,7 13 7 25 14 NNW 1020,9 10 0,0
15.07.2019 16:00:00 15,1 11,6 15,7 16 9 29 16 NNW 1020,9 10 0,0
15.07.2019 15:00:00 15,1 11,7 15,5 16 9 29 16 NNW 1020,8 10 0,0
15.07.2019 14:00:00 16,2 11,7 18,4 21 11 32 18 NW 1020,8 10 0,0
15.07.2019 13:00:00 15,6 12,0 15,5 18 10 36 19 NW 1020,8 10 0,0
15.07.2019 12:00:00 15,0 12,1 16,8 16 9 25 14 NW 1020,8 10 0,0
15.07.2019 11:00:00 15,7 11,5 15,8 15 8 25 14 NNW 1020,7 10 0,0
15.07.2019 10:00:00 14,6 11,1 14,7 11 6 29 16 NNW 1020,7 10 0,0
15.07.2019 09:00:00 14,5 10,1 14,3 9 5 25 14 NNW 1020,5 10 0,0
15.07.2019 08:00:00 14,3 9,6 14,0 8 4 22 12 N 1020,3 10 0,0
15.07.2019 07:00:00 13,1 11,5 12,7 4 2 25 14 - 1020,5 10 0,0
15.07.2019 06:00:00 14,0 9,8 13,6 9 5 18 10 NNW 1020,5 10 0,0
15.07.2019 05:00:00 14,0 9,5 13,5 11 6 25 14 NNW 1020,4 10 0,0
15.07.2019 04:00:00 14,1 9,4 13,6 9 5 18 10 N 1020,6 10 0,0
15.07.2019 03:00:00 14,0 10,5 13,7 9 5 22 12 N 1021,0 10 0,0
15.07.2019 02:00:00 13,9 10,8 13,5 9 5 22 12 N 1021,2 10 0,0
15.07.2019 01:00:00 14,0 11,0 13,7 8 4 25 14 N 1021,4 10 0,0
15.07.2019 00:00:00 14,3 10,3 14,0 13 7 22 12 N 1021,4 10 0,0
14.07.2019 23:00:00 14,4 11,3 14,1 13 7 22 12 N 1021,2 10 0,0
14.07.2019 22:00:00 14,6 11,7 14,3 11 6 22 12 N 1021,4 10 0,0
14.07.2019 21:00:00 14,0 12,2 13,9 9 5 25 14 NNW 1021,3 10 0,0
14.07.2019 20:00:00 14,7 11,5 14,5 13 7 25 14 NNW 1021,2 10 0,0
14.07.2019 19:00:00 15,0 11,6 15,0 15 8 25 14 NW 1021,2 10 0,0
14.07.2019 18:00:00 15,9 11,1 16,5 13 7 25 14 NNW 1021,3 10 0,0
14.07.2019 17:00:00 15,7 11,2 16,7 15 8 32 18 NNW 1021,6 10 0,0
14.07.2019 16:00:00 15,4 11,1 16,0 16 9 29 16 NNW 1021,5 10 0,0
14.07.2019 15:00:00 16,6 11,4 17,2 16 9 29 16 N 1021,5 10 0,0
14.07.2019 14:00:00 17,6 11,4 20,0 21 11 32 18 NNW 1021,4 10 0,0
14.07.2019 13:00:00 16,8 11,7 17,4 16 9 36 19 N 1021,4 10 0,0
14.07.2019 12:00:00 16,5 12,1 17,0 11 6 29 16 NNW 1021,1 10 0,0
14.07.2019 11:00:00 14,8 12,7 14,9 16 9 36 19 NNW 1021,0 10 0,0
14.07.2019 10:00:00 15,3 13,6 15,7 9 5 32 18 N 1020,8 10 0,1
14.07.2019 09:00:00 15,6 12,5 16,6 16 9 29 16 N 1020,4 10 0,1
14.07.2019 08:00:00 13,7 12,6 13,8 15 8 32 18 N 1020,5 6 0,3
14.07.2019 07:00:00 14,1 12,6 13,6 9 5 22 12 NNW 1020,2 10 0,2
14.07.2019 06:00:00 14,1 11,9 13,5 11 6 25 14 N 1020,3 10 0,0
14.07.2019 05:00:00 13,7 11,9 13,4 15 8 29 16 N 1020,5 10 0,0
14.07.2019 04:00:00 13,4 12,5 13,2 15 8 25 14 NNW 1020,5 5 0,1
14.07.2019 03:00:00 13,6 12,4 13,3 16 9 32 18 NNW 1020,8 4,7 0,0
14.07.2019 02:00:00 14,9 11,0 14,5 11 6 25 14 N 1020,6 10 0,0
14.07.2019 01:00:00 15,0 10,8 14,6 13 7 25 14 N 1020,7 10 0,0
14.07.2019 00:00:00 14,9 10,1 14,4 11 6 29 16 N 1020,9 10 0,0
13.07.2019 23:00:00 15,0 9,9 14,5 11 6 29 16 NNW 1021,1 10 0,0
13.07.2019 22:00:00 15,1 9,8 14,6 15 8 32 18 NNW 1020,8 10 0,0
13.07.2019 21:00:00 15,5 9,9 15,2 18 10 32 18 N 1020,6 10 0,0
13.07.2019 20:00:00 15,8 11,2 15,8 16 9 32 18 NNW 1020,2 10 0,0
13.07.2019 19:00:00 16,1 11,7 16,3 16 9 29 16 NNW 1020,0 10 0,0
13.07.2019 18:00:00 16,4 12,6 16,6 21 11 36 19 NNW 1019,8 10 0,0
13.07.2019 17:00:00 15,5 13,8 16,0 18 10 32 18 NNW 1020,1 10 0,0
13.07.2019 16:00:00 17,3 12,7 19,1 18 10 32 18 NW 1020,0 10 0,0
13.07.2019 15:00:00 17,0 12,4 18,7 18 10 32 18 NNW 1019,9 10 0,0
13.07.2019 14:00:00 17,2 13,2 18,8 16 9 29 16 N 1019,6 10 0,0
13.07.2019 13:00:00 17,3 12,8 17,9 16 9 29 16 N 1019,3 10 0,0
13.07.2019 12:00:00 16,3 14,8 16,8 11 6 29 16 N 1018,7 10 0,1
13.07.2019 11:00:00 16,4 14,6 17,1 15 8 29 16 NNW 1018,4 4,6 0,0
13.07.2019 10:00:00 16,9 14,7 17,2 15 8 25 14 WNW 1018,2 10 0,0
13.07.2019 09:00:00 17,0 14,9 17,4 13 7 25 14 WNW 1017,7 10 0,0
13.07.2019 08:00:00 17,2 14,8 17,5 15 8 22 12 NW 1017,2 10 0,0
13.07.2019 07:00:00 16,6 13,4 15,9 5 3 14 8 N 1016,7 10 0,0
13.07.2019 06:00:00 16,2 13,4 15,8 8 4 18 10 N 1016,4 10 0,0
13.07.2019 05:00:00 16,1 13,4 15,4 8 4 18 10 N 1016,0 10 0,0
13.07.2019 04:00:00 16,5 14,5 16,0 5 3 14 8 N 1015,8 10 0,0
13.07.2019 03:00:00 16,2 15,1 15,6 4 2 11 6 - 1015,6 10 0,0
13.07.2019 02:00:00 16,2 15,0 15,4 8 4 11 6 NW 1015,5 10 0,0
13.07.2019 01:00:00 15,9 14,5 14,2 5 3 14 8 NW 1015,4 10 0,0
13.07.2019 00:00:00 16,5 14,4 16,1 8 4 14 8 NW 1015,1 10 0,0
12.07.2019 23:00:00 16,3 14,6 16,1 11 6 22 12 NW 1014,8 10 0,0
12.07.2019 22:00:00 16,5 14,7 15,7 13 7 22 12 NW 1014,4 10 0,0
12.07.2019 21:00:00 16,8 15,1 16,7 18 10 29 16 NW 1013,5 10 0,0
12.07.2019 20:00:00 17,1 14,6 17,2 15 8 25 14 NW 1013,1 10 0,0
12.07.2019 19:00:00 17,2 14,8 17,7 15 8 29 16 NW 1012,5 10 0,0

tt = Température de l'air
td = dewpoint
tt 5cm = Température de l'air 5cm
ff = Vitesse du vent
fx = gusts
dd = Direction du vent
ppp = reduced air pressure
vv = visibility
rr = Quantités de précipitations

stations d'obs. à proximité